Orbital elements:
2009 JM2                                                 Earth MOID = 0.0943 AU
Epoch 2023 Sept. 13.0 TT = JDT 2460200.5                Veres                   
M 314.91454              (2000.0)            P               Q                  
n   0.26594593     Peri.  119.61962     -0.95926957     +0.07029570             
a   2.3948252      Node    65.60663     -0.20267522     -0.84595405             
e   0.6060750      Incl.   17.48312     +0.19678579     -0.52860218             
P   3.71           H   19.38          G   0.15           U   0                  
Residuals in seconds of arc
090512 703  0.1-  0.3+    090519 H45 (0.4+  3.0-)   090521 G56  0.4+  0.5+
090512 703  0.0   0.1+    090519 H45 (0.3+  2.9-)   090521 G56  0.0   0.0
090512 703  0.3-  0.0     090519 H45 (0.4+  3.0-)   090521 H45  0.1+  0.7-
090512 703  0.1+  0.1-    090519 H45 (0.5+  3.2-)   090521 H45  0.2+  0.5-
090512 703  0.2-  0.0     090519 H45 (0.4+  3.1-)   090521 H45  0.2+  0.5-
090512 703  0.4-  0.1+    090519 H45 (0.4+  3.3-)   090521 H45  0.2+  0.5-
090512 703  0.2-  0.1-    090519 H45 (0.3+  3.1-)   090521 H45  0.1+  0.4-
090512 703  0.4-  0.1-    090519 H45 (0.3+  3.0-)   090521 H45  0.2+  0.5-
090512 703  0.1-  0.1-    090519 H45 (0.3+  3.1-)   090521 H45  0.1+  0.5-
090512 703  0.1-  0.0     090519 379  0.3-  0.1-    090521 H45  0.3+  0.5-
090512 703  0.0   0.1+    090519 379  0.1+  0.1+    090521 H45  0.2+  0.5-
090512 703  0.1-  0.0     090519 379  0.0   0.1+    090521 H45  0.3+  0.5-
090512 H06  0.0   0.2-    090519 379  0.1-  0.3+    090521 H55  0.0   0.1+
090512 H06  0.2-  0.4-    090519 379  0.3-  0.3-    090521 H55  0.1-  0.1-
090512 H06  0.6-  0.5-    090519 379  0.2+  0.3-    090521 H55  0.2-  0.0
090512 703  0.0   0.2+    090519 900  0.1+  0.2-    090521 H55  0.1-  0.1-
090512 703  0.3-  0.5+    090519 900  0.2+  0.0     090521 H55  0.1-  0.0
090512 703  0.4+  0.0     090519 B88  0.0   0.4-    090521 H55  0.0   0.0
090512 703  0.0   0.1-    090519 B88  0.5+  0.5-    090521 H55  0.1-  0.2+
090512 114  0.3-  2.5+    090519 B88  0.8-  1.5-    090521 145  0.1-  0.2+
090512 114 (0.7-  3.0+)   090519 560  0.6+  0.1-    090521 145  0.2-  0.2+
090512 114 (0.8-  4.2+)   090519 560  0.3+  0.1-    090521 145  0.2-  0.3+
090512 114 (0.5-  4.1+)   090519 560  0.3+  0.1+    090521 145  0.2-  0.2+
090512 114 (1.0-  5.0+)   090519 A81  0.1-  0.0     090521 145  0.1-  0.1+
090512 B15  0.2-  0.4-    090519 A48  0.1-  0.2+    090521 145  0.0   0.0
090512 B15  0.0   0.3-    090519 A81  0.1+  0.1-    090522 H45  0.2-  0.0
090512 B15  0.2-  0.3-    090519 A48  0.1+  0.3+    090522 H45  0.5-  0.7-
090512 595  0.1+  0.2+    090519 B76  0.7+  0.5+    090522 H45  0.0   0.4-
090512 595  0.2-  0.1+    090519 A48  0.1+  0.3+    090522 H45  0.9+  0.6-
090512 595  0.1+  0.1-    090519 A81  0.1-  0.2-    090522 H45  0.3+  0.7-
090512 J16  0.1+  0.3+    090519 A48  0.1-  0.3+    090522 H45  0.4+  0.6-
090512 J16  0.2+  0.0     090519 A81  0.0   0.1-    090522 H45  0.4+  0.8-
090512 J16  0.2+  0.2+    090519 B76 (2.1+  3.0+)   090522 H45  0.3+  0.6-
090512 J41  0.8+  0.7+    090519 A81  0.0   0.0     090522 H45  0.2+  0.7-
090512 J41  0.5-  0.1-    090519 B76 (4.2+  1.7+)   090522 A48  0.3-  0.2+
090512 J41  0.3-  0.0     090519 B75  0.1-  0.5+    090522 A48  0.1-  0.1-
090512 118  0.1-  0.1+    090519 B75  0.9+  1.1-    090522 A48  0.1-  0.4+
090512 118  0.1-  0.1+    090519 B75  0.4+  0.3-    090522 A48  0.3-  0.1+
090512 118  0.2-  0.1+    090519 204  0.2-  0.1+    090522 B40  0.1-  0.2-
090512 118  0.2-  0.0     090519 204  0.0   0.1-    090522 B40  0.1+  0.1-
090512 118  0.0   0.0     090519 A53  0.4-  0.1+    090522 B40  0.1-  0.2+
090512 118  0.2-  0.0     090519 A53  0.3-  0.1-    090522 B40  0.1+  0.1+
090512 118  0.2-  0.2+    090519 A53  0.2-  0.4+    090523 703  0.2-  0.1+
090513 H06  0.0   0.1-    090519 A53  0.2-  0.1+    090523 703  0.4-  0.2+
090513 H06  0.1+  0.4-    090519 A53  0.1+  0.4+    090523 703  0.2-  0.2-
090513 H06  0.0   0.2-    090519 204  0.0   0.2-    090523 703  0.1+  0.3+
090513 673  0.7+  0.1-    090519 204  0.1-  0.0     090523 A48  0.2-  0.3+
090513 673  0.9+  0.1-    090520 H26  0.0   0.4-    090523 A48  0.2-  0.1+
090513 673  0.0   0.2-    090520 H26  0.1-  0.4-    090523 A48  0.2-  0.1+
090513 673  0.5+  0.5-    090520 H26  0.0   0.0     090523 A48  0.2-  0.0
090513 670  0.0   0.4-    090520 H26  0.0   0.3-    090523 A53  0.2+  0.8+
090513 854  1.5+  1.2-    090520 H26  0.3-  0.2-    090523 A53  0.1-  0.2+
090513 854  0.3+  1.2-    090520 H26  0.1+  0.1-    090523 A53  0.4+  0.3+
090513 854  0.1-  0.2-    090520 H26  0.2-  0.1-    090523 A53  0.1-  0.4+
090513 670  0.8-  0.2-    090520 H26  0.1+  0.0     090523 A53  0.8+  0.4+
090513 670  0.3-  0.2-    090520 H26  0.1-  0.2-    090524 H55  0.1+  0.2+
090513 H06  0.2+  0.3-    090520 H26  0.0   0.1+    090524 H55  0.0   0.4+
090513 854  0.1+  1.2-    090520 H26  0.2+  0.2-    090524 H55  0.2+  0.2+
090513 854  0.1+  0.9-    090520 H26  0.1+  0.1-    090524 H55  0.1-  0.1+
090513 854  0.0   1.5-    090520 H26  0.3+  0.0     090524 H55  0.2-  0.2+
090513 H06  0.1+  0.1-    090520 H26  0.4-  0.2+    090524 H55  0.1+  0.3-
090513 670  0.2-  0.2+    090520 H26  0.2+  0.3-    090524 H55  0.2-  0.2+
090513 G56  0.2+  0.4+    090520 H26  0.2-  0.0     090524 H55  0.4-  0.3+
090513 G56  0.2-  0.5+    090520 H26  0.2+  0.3-    090524 611  0.1+  0.1+
090513 G56  0.2-  0.1+    090520 H26  0.0   0.3-    090524 611  0.1+  0.3+
090513 900  0.2+  0.2-    090520 H26  0.2-  0.1-    090524 611  0.0   0.1+
090513 900  0.1-  0.1-    090520 H26  0.1+  0.1-    090524 138  0.8+  0.4-
090513 900  0.0   0.2-    090520 H26  0.1-  0.2-    090524 138  0.7+  0.7-
090513 900  0.1-  0.3-    090520 H26  0.1+  0.2-    090524 138  0.8+  0.0
090513 900  0.0   0.2-    090520 H26  0.2+  0.2-    090524 138  0.4+  0.2-
090513 900  0.1+  0.1-    090520 H26  0.3-  0.1-    090524 138  0.8+  0.2-
090513 900  0.0   0.0     090520 H26  0.1+  0.0     090525 I21  0.2-  0.2+
090513 B03  0.1-  0.2-    090520 H26  0.3+  0.2-    090525 I21  0.4-  0.8+
090513 B03  0.1+  0.2-    090520 H26  0.3+  0.1-    090525 379  0.5+  0.5+
090513 B03  0.0   0.1-    090520 H26  0.1+  0.4-    090525 379  0.4-  0.1+
090514 379  0.3-  0.6+    090520 H26  0.0   0.2-    090525 379  0.1+  0.3+
090514 379  0.4-  0.4+    090520 H26  0.4+  0.0     090525 379  0.0   0.2-
090514 379  0.0   0.5+    090520 H26  0.2+  0.3-    090525 379  0.0   0.1+
090514 379  0.0   0.4+    090520 H26  0.1+  0.3-    090525 379  0.1-  0.1+
090514 379  0.2-  0.9+    090520 H26  0.1-  0.2-    090525 379  0.0   0.1-
090514 379  0.6-  0.4+    090520 H26  0.3-  0.0     090525 379  0.1-  0.1+
090514 379  0.7-  0.6+    090520 H26  0.0   0.1-    090525 379  0.2-  0.2-
090515 H55  0.0   0.2+    090520 H26  0.2+  0.2-    090525 379  0.3+  0.2+
090515 H55  0.1-  0.1+    090520 H26  0.3+  0.4+    090525 379  0.2+  0.3+
090515 H55  0.1-  0.0     090520 H26  0.1+  0.1-    090525 379  0.4-  0.5+
090515 H55  0.0   0.1+    090520 H26  0.2+  0.0     090525 379  0.3-  0.2+
090515 H55  0.0   0.0     090520 H26  0.1+  0.3-    090525 A53  0.2+  0.1+
090515 J51  0.3+  0.3-    090520 H26  0.0   0.0     090525 A53  0.4+  0.1-
090515 J51  0.3+  0.2-    090520 H26  0.1+  0.3-    090525 B09  0.2-  0.4-
090516 J51  0.1+  0.1+    090520 H26  0.2+  0.3-    090525 A53  0.3+  0.2+
090516 673 (0.9+  3.2-)   090520 H26  0.0   0.2-    090525 A53  0.8+  0.1-
090516 673  0.0   0.8+    090520 H26  0.2+  0.2-    090525 B09  0.2-  0.1+
090516 673  0.2+  0.6+    090520 H26  0.1+  0.3-    090525 A53  0.1+  0.0
090516 673  0.2+  0.3+    090520 H26  0.1+  0.2-    090525 B09  0.1-  0.1+
090516 560  0.3-  0.1-    090520 H26  0.2-  0.4-    090525 A48  0.1-  0.1-
090516 560  0.1-  0.1+    090520 H26  0.0   0.3-    090525 A48  0.2-  0.0
090516 560  0.2+  0.1-    090520 H26  0.1+  0.2-    090525 A48  0.1-  0.2-
090516 A48  0.2-  0.0     090520 H26  0.2+  0.3-    090525 A48  0.3-  0.4-
090516 198  0.1+  0.1-    090520 H26  0.3-  0.1-    090525 J51  0.3-  0.1-
090516 A48  0.0   0.0     090520 H26  0.1+  0.3-    090525 J51  0.1-  0.0
090516 198  0.2+  0.2-    090520 H26  0.0   0.4-    090525 J51  0.0   0.1-
090516 A48  0.0   0.0     090520 H26  0.2-  0.1-    090526 J53  0.1+  0.8-
090516 198  0.2+  0.1-    090520 H26  0.1+  0.2-    090526 J53  0.1-  0.8-
090516 198  0.2+  0.1-    090520 H26  0.2+  0.3-    090526 J53  0.1+  0.8-
090516 A48  0.0   0.1+    090520 H26  0.1-  0.3-    090526 A81  0.2-  0.2-
090517 H26  0.2-  0.0     090520 H26  0.3+  0.5-    090526 A81  0.0   0.1+
090517 H26  0.1-  0.2-    090520 H26  0.1+  0.0     090526 A81  0.3-  0.1+
090517 H26  0.3-  0.3-    090520 H26  0.5-  0.2+    090527 J51  0.1-  0.1-
090517 H26  0.2+  0.3-    090520 H26  0.2+  0.0     090527 J51  0.0   0.1-
090517 H26  0.1+  0.1-    090520 H26  0.0   0.1-    090527 J51  0.2+  0.0
090517 H26  0.0   0.1-    090520 H26  0.1+  0.1-    090528 H45  0.1+  0.2-
090517 H26  0.1+  0.2-    090520 H26  0.0   0.2-    090528 H45  0.0   0.2-
090517 H26  0.0   0.3-    090520 H26  0.1-  0.4-    090528 H45  0.3+  0.0
090517 H26  0.1+  0.3-    090520 H26  0.2+  0.4-    090528 H45  0.0   0.1-
090517 H26  0.0   0.0     090520 H26  0.0   0.2+    090528 H45  0.1-  0.3-
090517 H26  0.2+  0.3-    090520 H26  0.3+  0.1-    090528 H45  0.1+  0.1-
090517 H26  0.0   0.1-    090520 H26  0.4+  0.3-    090528 H45  0.3+  0.3-
090517 H26  0.3+  0.4-    090520 H26  0.1+  0.4-    090528 H45  0.0   0.3-
090517 H26  0.1+  0.3-    090520 H26  0.1-  0.4-    090529 151  0.8-  0.3-
090517 H26  0.0   0.2-    090520 H26  0.1-  0.3-    090529 151  0.5-  0.3-
090517 H26  0.0   0.0     090520 H26  0.0   0.4-    090529 151  0.1-  0.3-
090517 H26  0.2+  0.1-    090520 H26  0.2+  0.4-    090529 151  0.5-  0.1-
090517 H26  0.3+  0.2-    090520 H26  0.2+  0.1-    090529 151  0.2-  0.0
090517 H26  0.2+  0.0     090520 H26  0.3+  0.2-    090529 151  0.3-  0.0
090517 H55  0.0   0.2+    090520 H26  0.1+  0.2-    090529 151  0.5-  0.0
090517 H55  0.0   0.0     090520 H26  0.0   0.2-    090529 510  0.1+  0.0
090517 H55  0.0   0.0     090520 H26  0.0   0.2-    090529 510  0.1+  0.2+
090517 H55  0.2+  0.1-    090520 H55  0.0   0.0     090529 510  0.0   0.0
090517 H55  0.0   0.1-    090520 H55  0.0   0.1+    090530 H45  0.2+  0.2-
090517 H55  0.1+  0.0     090520 H55  0.1-  0.1+    090530 H45  0.1+  0.1-
090517 H55  0.0   0.0     090520 H55  0.1+  0.1+    090530 H45  0.1+  0.1-
090517 B76  0.3+  1.1-    090520 H55  0.1-  0.2+    090530 H45  0.2+  0.1-
090517 B76  0.5+  0.8+    090520 H55  0.0   0.0     090530 H45  0.3+  0.1-
090517 B76  0.3-  0.1-    090520 H45  0.2+  0.2-    090530 H45  0.3+  0.4+
090517 B76  0.6+  0.2-    090520 H45  0.2+  0.4-    090530 H45  0.1+  0.1-
090518 H55  0.0   0.1-    090520 H45  0.1+  0.5-    090530 H45  0.5+  0.3+
090518 H55  0.0   0.0     090520 H45  0.1+  0.6-    090530 J51  0.1-  0.0
090518 H55  0.1+  0.1-    090520 H45  0.1+  0.4-    090531 J51  0.0   0.0
090518 H55  0.1-  0.0     090520 H45  0.1+  0.1-    090531 J51  0.2+  0.0
090518 H55  0.0   0.1+    090520 H45  0.3+  0.2-    090601 I21  0.9-  0.4-
090518 H55  0.0   0.2+    090520 H45  0.4+  0.2-    090601 I21  0.2+  0.1+
090518 379  0.3-  0.2+    090520 H45  0.2+  0.1+    090601 I21  0.2-  0.2+
090518 379  0.5-  0.7+    090520 H45  0.3+  0.3-    090601 G96  0.0   0.0
090518 379  0.6-  0.4+    090520 151  0.1-  0.2-    090601 H55  0.2-  0.2+
090518 379  0.3-  0.4+    090520 151  0.1-  0.1-    090601 H55  0.0   0.2+
090518 379  0.3-  0.4+    090520 151  0.0   0.0     090601 H55  0.1+  0.1+
090518 379  0.0   0.0     090520 151  0.1-  0.1-    090601 H55  0.3-  0.1+
090518 379  0.6-  0.6+    090520 151  0.2-  0.1-    090601 G96  0.4-  0.1+
090518 379  0.0   0.0     090520 151  0.3-  0.1-    090601 H55  0.0   0.2+
090518 379  0.2-  0.0     090520 151  0.2-  0.2-    090601 H55  0.2-  0.0
090518 160  0.1-  0.1-    090520 A53  0.1-  0.1-    090601 H55  0.0   0.1-
090518 160  0.2-  0.1+    090520 A53  0.5-  0.5-    090601 G96  0.0   0.0
090518 160  0.1-  0.2-    090520 A53  0.0   0.5-    090601 379  0.2+  0.4+
090518 434  0.3-  1.8+    090520 A53  0.3-  0.6-    090601 379  0.3+  0.3-
090518 434  0.6-  1.5+    090520 A53  0.3-  0.1-    090601 379  0.2-  0.5+
090518 434  0.5-  1.7+    090520 160  0.1-  0.1+    090601 379  0.3+  0.3+
090518 434  0.4-  1.2+    090520 160  0.1-  0.2+    090601 379  0.1+  0.1+
090518 B19  0.2+  0.3+    090520 160  0.2-  0.0     090601 379  0.3-  0.1+
090518 B19  0.0   0.4+    090520 160  0.1-  0.1-    090601 379  0.3+  0.2+
090518 B19  0.0   0.1+    090520 160  0.0   0.0     090601 379  0.4+  0.2+
090518 J51  0.4+  0.2+    090520 B75  0.1+  0.5-    090601 379  0.3+  0.1-
090518 J51  0.4+  0.1-    090520 B75  0.2-  0.2-    090601 379  0.4+  0.1+
090518 J51  0.2+  0.2-    090520 B75  0.2-  0.5-    090601 379  0.2-  0.1+
090519 H55  0.0   0.1+    090520 B75  0.4-  0.0     090601 379  0.2-  0.1+
090519 H55  0.0   0.2+    090520 B75  0.5-  0.3+    090601 900  0.0   0.1-
090519 H55  0.1-  0.1+    090520 B75  0.5+  1.0-    090601 900  0.0   0.1+
090519 H55  0.1-  0.2+    090520 B75  0.4+  0.2+    090603 I20  0.1-  0.1+
090519 H55  0.1+  0.1+    090520 B75  0.3+  0.2-    090603 I20  0.0   0.0
090519 H55  0.1-  0.2+    090520 B75  0.1-  0.0     090603 I20  0.1-  0.0
090519 H55  0.1+  0.1+    090520 B75  0.3-  0.2+    090611 E12  0.0   0.1+
090519 H26  0.1-  0.2-    090520 B75  0.0   0.4-    090611 E12  0.1+  0.1+
090519 H26  0.1+  0.2-    090520 B75  0.4-  0.0     090611 E12  0.0   0.1+
090519 H26  0.1+  0.1-    090520 B75  0.3-  0.3+    090616 E12  0.1+  0.1+
090519 H26  0.2+  0.3+    090520 B75  0.6-  0.4+    090616 E12  0.1-  0.2+
090519 H26  0.0   0.2-    090520 B75  0.1-  0.2-    090616 E12  0.1+  0.0
090519 H26  0.1-  0.1-    090520 B75  0.2-  0.1-    191126 F52  0.1-  0.2-
090519 H26  0.0   0.2-    090520 B75  0.1-  0.1+    191126 F52  0.2-  0.4+
090519 H26  0.2-  0.4-    090520 B75  0.3-  0.5+    191126 F52  0.3-  0.0
090519 H26  0.2+  0.2-    090520 B75  0.1-  0.3+    191204 F52  0.2+  0.1-
090519 H26  0.1-  0.5-    090520 B75  0.1+  0.6-    191204 F52  0.3-  0.1-
090519 H26  0.1+  0.3-    090520 B75  0.0   0.7+    191204 F52  0.6+  0.1+
090519 H26  0.1-  0.2-    090520 B75  0.1-  0.3-    191220 F52  0.2+  0.1+
090519 H26  0.2-  0.3-    090520 B75  0.7+  0.3-    191220 F52  0.4-  0.1+
090519 H26  0.3+  0.4+    090520 B75  1.0+  0.5+    191229 F51  0.2-  0.1+
090519 H26  0.1+  0.2-    090520 B75  0.9+  0.4-    191229 F51  0.1-  0.0
090519 H26  0.1+  0.4-    090520 B75  0.7+  0.0     200119 F51  0.2+  0.1-
090519 H26  0.1+  0.3+    090520 B75  0.6+  0.4-    200119 F51  0.1+  0.0
090519 H26  0.1+  0.2-    090520 B75  0.2+  0.5-    200119 F51  0.2+  0.0
090519 H26  0.1-  0.2-    090520 B75  0.5+  0.5+    231016 F52  0.2+  0.1-
090519 H26  0.0   0.3-    090520 B75  0.2+  0.2-    231016 F52  0.1+  0.0
090519 H26  0.0   0.3-    090520 B75  0.0   0.3+    231026 F52  0.2-  0.5+
090519 H26  0.1-  0.3-    090520 B75  0.1-  0.5+    231026 F52  0.2-  0.1-
090519 H26  0.2+  0.1+    090520 B75  0.2+  0.3-    231213 G96  0.1+  0.1+
090519 H26  0.2+  0.1-    090520 B75  0.3-  0.1-    231213 G96  0.0   0.1-
090519 H26  0.1-  0.1-    090520 B75  0.1+  1.0-    231213 G96  0.1-  0.1-
090519 H26  0.2-  0.2-    090520 B75  0.3-  0.1+    231213 G96  0.5-  0.2-
090519 H26  0.3-  0.3-    090520 B75  0.1+  0.6-    231213 I52  0.0   0.2-
090519 H26  0.3-  0.3-    090520 B75  0.3+  0.4+    231213 I52  0.0   0.1-
090519 H26  0.2-  0.4-    090520 B75  0.3+  0.9+    231213 I52  0.0   0.3-
090519 H26  0.2-  0.4-    090520 B75  0.1+  0.2-    231213 I52  0.4+  0.1+
090519 H45 (0.3+  3.4-)   090521 G56  0.1-  0.6-

